Regional Weather Roundup
Issued by NWS

Home | Current Version | Previous Version | Graphics & Text | Print | Product List | Glossary On
Versions: 1 2 3 4 5 6 7 8 9 10 11 12 13 14 15 16 17 18 19 20 21 22 23 24 25 26 27 28 29 30 31 32 33 34 35 36 37 38 39 40 41 42 43 44 45 46 47 48 49 50
902
ASUS45 KBOU 281507
RWRCO

WEATHER ROUNDUP FOR COLORADO
NATIONAL WEATHER SERVICE DENVER/BOULDER CO
900 AM MDT TUE MAR 28 2017

NOTE: "FAIR" INDICATES FEW OR NO CLOUDS BELOW 12000 FEET WITH NO
SIGNIFICANT WEATHER AND/OR OBSTRUCTIONS TO VISIBILITY.

COZ001>005-013-030-031-281600-
...NORTHWEST COLORADO...

CITY           SKY/WX    TMP DP  RH WIND       PRES   REMARKS
CRAIG          LGT SNOW  34  31  88 SW8       29.92R FOG     WCI  27
HAYDEN         CLOUDY    32  28  86 W5        29.91R VSB 1   WCI  27
MEEKER         LGT RAIN  36  34  92 SW8       29.91S
MOUNT WERNER   NOT AVBL
STEAMBOAT SPGS CLOUDY    33  32  99 CALM      29.89S
WALDEN         NOT AVBL
$$

COZ006>008-011-281600-
...WEST CENTRAL VALLEYS...

CITY           SKY/WX    TMP DP  RH WIND       PRES   REMARKS
GRAND JUNCTION LGT RAIN  43  42  97 NW5       29.89R
MONTROSE       CLOUDY    40  39  97 W5        29.90S
EAGLE          CLOUDY    36  36 100 CALM      29.92R
RIFLE          CLOUDY    43  40  89 W8        29.89R
DELTA          CLOUDY    43  41  93 CALM      29.89R
NUCLA          CLOUDY    39  36  87 CALM      29.92R
$$

COZ017>023-064>068-281600-
...SOUTHWEST COLORADO...

CITY           SKY/WX    TMP DP  RH WIND       PRES   REMARKS
DURANGO        FAIR      37  34  89 S3        29.85R
CORTEZ         PTSUNNY   41  37  86 W5        29.86R
PAGOSA SPRINGS FAIR      38  36  92 CALM      29.87R
TELLURIDE      CLOUDY   N/A N/A N/A CALM      29.91R
WOLF CREEK PAS FAIR      21  21 100 N5        29.96F WCI  15
$$

COZ009-010-012-014-032>034-037-058>063-281600-
...CENTRAL COLORADO...

CITY           SKY/WX    TMP DP  RH WIND       PRES   REMARKS
ASPEN          SNOW      33  33 100 N5        29.88R VSB 1/4 WCI  29
BUENA VISTA    FAIR      41  31  68 CALM      29.87S
COPPER MTN     LGT SNOW  27  21  80 MISG      29.94S
BERTHOUD PASS  PTSUNNY   21  10  63 CALM      29.95S THUNDER
COTTONWOOD PAS CLOUDY    37  34  87 E5        29.90S
GUNNISON       CLOUDY    36  32  85 CALM      29.88S
KREMMLING      LGT SNOW  37  36  93 CALM      29.90S
LEADVILLE      FAIR      31  24  75 NW3       29.89R
MONARCH PASS   FOG       25  23  93 W8        30.03F VSB<1/4 WCI  16
SALIDA         FAIR      44  34  68 CALM      29.93S
SUNLIGHT       FOG       25  25 100 CALM      29.97R VSB 1/2
WILKERSON PASS FAIR      28  27  93 SW7       29.96S WCI  21
$$

COZ069>075-281600-
...SAN LUIS VALLEY/SANGRE DE CRISTO MOUNTAINS...

CITY           SKY/WX    TMP DP  RH WIND       PRES   REMARKS
ALAMOSA        FOG       31  31 100 N5        29.85S VSB 1/4 WCI  26
LA VETA PASS   NOT AVBL
SAGUACHE       CLOUDY    37  32  81 NW7       29.87F
$$

COZ035-036-038>040-281600-
...NORTHERN COLORADO FRONT RANGE...

CITY           SKY/WX    TMP DP  RH WIND       PRES   REMARKS
DENVER INTL AP CLOUDY    44  40  85 NW14      29.85R
DMNS CITY PARK   N/A     43  40  89 NW9G18    29.86S
AURORA         CLOUDY    42  42 100 NW14      29.86S
FRONT RANGE AP CLOUDY    46  43  87 NW14      29.85F
ERIE MUNI ARPT CLOUDY    44  42  92 N14       29.87R
BOULDER MUN AP DRIZZLE   43  41  93 N7        29.87S
CENTENNIAL     CLOUDY    43  40  89 N13       29.85S
BROOMFIELD     CLOUDY    43  41  93 N15       29.87R
FORT COLLINS   LGT RAIN  43  40  89 N16       29.87S
LONGMONT       CLOUDY    48  42  79 N12G17    29.89S
$$

COZ041-046-047-076>085-087-088-281600-
...PIKES PEAK/PALMER DIVIDE AND SOUTHERN FOOTHILLS...

CITY           SKY/WX    TMP DP  RH WIND       PRES   REMARKS
COLO. SPRINGS  PTSUNNY   44  37  76 N8        29.84F
A. F. ACADEMY  NOT AVBL
SCHRIEVER AFB  PTSUNNY   39  37  94 NE8       29.85F
ELLICOTT       NOT AVBL
FALCON         FAIR      41  38  90 N7        29.86F
FORT CARSON    CLOUDY    43  38  83 N9        29.83F
LIMON          CLOUDY    41  41 100 S12       29.86S FOG
MONUMENT HILL  CLOUDY    37  37 100 NW6       29.88S FOG
TRINIDAD       LGT RAIN  46  39  76 E6        29.83R
$$

COZ042>045-048>051-090-091-281600-
...NORTHEAST COLORADO...

CITY           SKY/WX    TMP DP  RH WIND       PRES   REMARKS
GREELEY ARPT   PTSUNNY   46  42  86 NE9       29.85S
AKRON          CLOUDY    45  43  93 SE10      29.87S FOG
BURLINGTON     CLOUDY    46  45  96 SE17      29.89R FOG
WRAY           NOT AVBL
STERLING       CLOUDY    45  45 100 SE7       29.87S
HOLYOKE        LGT RAIN  46  43  87 SE13      29.92S
FORT MORGAN    CLOUDY    47  39  74 SE10      29.87S
$$

COZ086-089-092>099-281600-
...SOUTHEAST COLORADO...

CITY           SKY/WX    TMP DP  RH WIND       PRES   REMARKS
PUEBLO         FAIR      45  40  82 N12       29.83R
LA JUNTA       FAIR      51  41  68 E7        29.79F
LAMAR          LGT RAIN  47  44  90 SE16G22   29.82F
SPRINGFIELD      N/A     45  43  93 SE13      29.85S
$$




USA.gov is the U.S. government's official web portal to all federal, state and local government web resources and services.